Regional Weather Roundup
Issued by NWS Sterling, VA

Home | Current Version | Previous Version | Text Only | Print | Product List | Glossary Off
Versions: 1 2 3 4 5 6 7 8 9 10 11 12 13 14 15 16 17 18 19 20 21 22 23 24 25 26 27

000
ASUS41 KLWX 240610
RWRLWX

REGIONAL WEATHER ROUNDUP
NATIONAL WEATHER SERVICE BALTIMORE MD/WASHINGTON DC
200 AM EDT THU APR 24 2014

Note: "FAIR" indicates few or no clouds below 12,000 feet
with no significant weather and/or obstructions to visibility.
 TC=TEMPERATURE CELSIUS

 * =Non NWS site. Station does not report precipitation (e.g. rain,
    snow, etc.), thunder, or fog.

DCZ001-MDZ009-015-VAZ040>042-051-053>054-240700-
WASHINGTON METRO

CITY           SKY/WX    TMP DP  RH WIND       PRES   REMARKS
WASHINGTON NAT FAIR      49  29  46 NW9       30.03R
DULLES         FAIR      44  28  53 NW9       30.03R
ANDREWS AFB    FAIR      47  29  50 NW13      30.00S
FT BELVOIR     FAIR      47  29  50 NW8       30.03R
QUANTICO       FAIR      48  28  46 N12       30.04S
COLLEGE PARK*  FAIR      46  32  57 W5        30.01R
LEESBURG*      FAIR      45  32  61 NW8G17    30.03R
MANASSAS*      FAIR      46  30  53 NW9       30.03S
GAITHERSBURG*  FAIR      41  27  56 NW8       30.03S

$$

MDZ006>007-011-014-240700-
BALTIMORE METRO

CITY           SKY/WX    TMP DP  RH WIND       PRES   REMARKS
BWI AIRPORT    FAIR      41  29  62 W7        29.99R
MD SCIENCE CTR   N/A     47  28  47 MISG      29.99R
MARTIN STATE   FAIR      41  32  70 W7        30.00R
ANNAPOLIS      FAIR      46  30  53 W5        29.99S
FORT MEADE*    FAIR      39  30  70 W5        30.02S

$$

MDZ012-015-019>023-240700-
MARYLAND EASTERN SHORE

CITY           SKY/WX    TMP DP  RH WIND       PRES   REMARKS
OCEAN CITY     FAIR      46  30  53 NW7       29.96R
SALISBURY      FAIR      48  30  49 NW6       29.96S
BAY BRIDGE AP* FAIR      46  32  57 NW12      29.99S
CAMBRIDGE*     FAIR      52  32  46 NW14G20   29.98S
EASTON*        FAIR      48  34  57 NW14      30.01S

$$

MDZ017>025-240700-
SOUTHERN MARYLAND

CITY           SKY/WX    TMP DP  RH WIND       PRES   REMARKS
PATUXENT RIVER FAIR      48  30  49 W12       30.00R
ST INIGOES     FAIR      48  31  51 NW8       30.00S
LEONARDTOWN*   FAIR      45  30  57 W5        30.01S

$$

MDZ003>005-240700-
NORTH CENTRAL MARYLAND

CITY           SKY/WX    TMP DP  RH WIND       PRES   REMARKS
FREDERICK*     FAIR      43  30  61 NW6       30.04R
HAGERSTOWN APT FAIR      41  25  53 NW15      30.01S
WESTMINSTER*   FAIR      43  27  52 NW7       29.98S

$$

MDZ501>502-240700-
WESTERN MARYLAND

CITY           SKY/WX    TMP DP  RH WIND       PRES   REMARKS
OAKLAND*       FAIR      32  19  59 NW6       30.02F
CUMBERLAND*    FAIR      43  21  42 N8        30.10S

$$

VAZ025>031-240700-
SHENANDOAH VALLEY

CITY           SKY/WX    TMP DP  RH WIND       PRES   REMARKS
WINCHESTER*    FAIR      45  28  53 NW13G20   30.03S
STAUNTON*      FAIR      38  29  67 SE3       30.06S

$$

WVZ021-048>050-054>055-240700-
EASTERN WEST VIRGINIA PANHANDLE

CITY           SKY/WX    TMP DP  RH WIND       PRES   REMARKS
MARTINSBURG    FAIR      45  22  40 NW12      30.03S
PETERSBURG*    FAIR      46  34  62 N6        30.07F

$$

VAZ036>039-050-240700-
CENTRAL FOOTHILLS

CITY           SKY/WX    TMP DP  RH WIND       PRES   REMARKS
CHARLOTTESVILL FAIR      48  26  42 N7        30.04R
CULPEPER*      FAIR      48  27  43 CALM      30.05S

$$

VAZ055>057-240700-
NORTH AND CENTRAL PIEDMONT

CITY           SKY/WX    TMP DP  RH WIND       PRES   REMARKS
FREDERICKSBRG* FAIR      47  32  55 NW9       30.02F
STAFFORD*      FAIR      44  32  61 NW8       30.07S

$$

NCZ024-NYZ072-PAZ021-071-VAZ022-071-240700-
OTHER REGIONAL OBSERVATIONS

CITY           SKY/WX    TMP DP  RH WIND       PRES   REMARKS
NEW YORK CITY  FAIR      44  29  55 W9G22     29.87R
PHILADELPHIA   FAIR      46  26  45 W9        29.94S
PITTSBURGH     FAIR      36  15  42 NW6       30.09S
ROANOKE        FAIR      51  28  41 N6        30.06S
RICHMOND       FAIR      48  32  53 N6        30.02R
RALEIGH        FAIR      51  32  48 NE5       30.02S

$$

ANZ530>537-240700-
MARINE OBSERVATIONS

STATION/POSITION TIME  TEMP    WIND        PRES
                       AIR SEA DIR/SP/G
                 (UTC) (F)     (DEG/KT/KT) (MB)
THOMAS PT LIGHT  0600   48 54  290/ 13/ 17 1016.0S
BALT KEY BRIDGE  0600   48     280/ 12/ 15 1015.5S
COVE POINT       0600   49     330/ 10/ 14 1015.6R
LEWISETTA        0600   51 57  340/ 13/ 18 1015.9S
SOLOMONS ISLAND  0600      55                N/A
PINEY POINT      0600          350/ 18/ 20   N/A

$$




USA.gov is the U.S. government's official web portal to all federal, state and local government web resources and services.